Tracking 18633 objects as of 23-April-2017
HD Live streaming from Space Station
objects crossing your sky now

COSMOS 2430

Track COSMOS 2430 now!
COSMOS 2430 is classified as:


NORAD ID: 32268
Int'l Code: 2007-049A
Perigee: 264.9 km
Apogee: 40,130.8 km
Inclination: 63.3 °
Period: 718.3 minutes
Semi major axis: 26568 km
RCS: 3.1623 m2 (large)
Launch date: October 23, 2007
Source: Commonwealth of Independent States (former USSR) (CIS)
Launch site: PLESETSK MISSILE AND SPACE COMPLEX (PKMTR)
Your satellite tracking list
Your tracking list is empty





NASA's NSSDC Master Catalog

Two Line Element Set (TLE):
1 32268U 07049A   17111.57414464 +.00000450 +00000-0 +69282-3 0  9996
2 32268 063.3327 323.4540 7502381 241.3935 025.9762 02.00467253069589
Source of the keplerian elements: AFSPC